Menomonie, WI

6:29 AM CDT on May 25, 2018 (GMT -0500)
Menomonie

Weather History for KLUM - June, 2014

Change the Weather History Date:

Saturday, June 7, 2014

  Actual Average (KEAU) Record (KEAU)
Temperature  
Mean Temperature 60 °F -  
Max Temperature 67 °F 77 °F 100 °F (2011)
Min Temperature 52 °F 52 °F 35 °F (1897)
Degree Days  
Heating Degree Days 5    
Growing Degree Days 10 (Base 50)    
Moisture  
Dew Point 56 °F    
Average Humidity 90    
Maximum Humidity 99    
Minimum Humidity 73    
Precipitation  
Precipitation 0.74 in - - ()
Sea Level Pressure  
Sea Level Pressure 29.98 in    
Wind  
Wind Speed 5 mph (North)    
Max Wind Speed 21 mph    
Max Gust Speed 28 mph    
Visibility 9 miles    
Events Rain , Thunderstorm    
Averages and records for this station are not official NWS values.
T = Trace of Precipitation, MM = Missing Value Source: NWS Daily Summary

Daily Weather History Graph

Daily Weather History Graph

Search for Another Location

Airport or City:

Astronomy

Jun. 07, 2014 Rise Set
Actual Time 5:21 AM CDT 8:51 PM CDT
Civil Twilight 4:45 AM CDT 9:28 PM CDT
Nautical Twilight 3:56 AM CDT 10:16 PM CDT
Astronomical Twilight 2:54 AM CDT 11:19 PM CDT
Moon 2:55 PM CDT (6/7) 1:58 AM CDT (6/7)
Length of Visible Light 16h 42m
Length of Day
15h 29m
Waxing Gibbous, 68% of the Moon is Illuminated
Jun 7
Waxing Gibbous
Jun 12
Full
Jun 19
Last Quarter
Jun 27
New
Jul 5
First Quarter

Hourly Weather History & Observations

Time (CDT) Temp. Dew Point Humidity Pressure Visibility Wind Dir Wind Speed Gust Speed Precip Events Conditions
12:15 AM 67.5 °F 58.6 °F 73% 29.96 in 10.0 mi East 4.6 mph - N/A   Clear
12:35 AM 66.9 °F 59.0 °F 76% 29.97 in 10.0 mi East 3.5 mph - N/A   Clear
12:55 AM 66.6 °F 59.0 °F 77% 29.97 in 10.0 mi Calm Calm - N/A   Clear
1:15 AM 67.3 °F 58.6 °F 74% 29.97 in 10.0 mi Calm Calm - N/A   Clear
1:35 AM 65.5 °F 59.4 °F 81% 29.94 in 10.0 mi Calm Calm - N/A   Scattered Clouds
1:55 AM 65.3 °F 59.0 °F 80% 29.92 in 10.0 mi NNE 3.5 mph - N/A   Scattered Clouds
2:15 AM 63.7 °F 58.6 °F 84% 29.93 in 10.0 mi Calm Calm - N/A   Clear
2:35 AM 63.5 °F 59.9 °F 88% 29.94 in 10.0 mi Calm Calm - N/A   Clear
2:55 AM 63.5 °F 60.1 °F 89% 29.94 in 10.0 mi Calm Calm - N/A   Scattered Clouds
3:15 AM 63.3 °F 59.4 °F 87% 29.93 in 10.0 mi Calm Calm - N/A   Scattered Clouds
3:35 AM 63.0 °F 59.7 °F 89% 29.93 in 10.0 mi East 3.5 mph - N/A   Clear
3:55 AM 62.2 °F 59.5 °F 91% 29.93 in 10.0 mi Calm Calm - N/A   Clear
4:15 AM 62.1 °F 59.4 °F 91% 29.93 in 10.0 mi ESE 3.5 mph - N/A   Clear
4:35 AM 61.7 °F 59.0 °F 91% 29.92 in 10.0 mi ESE 4.6 mph - N/A   Clear
4:55 AM 61.7 °F 59.0 °F 91% 29.92 in 10.0 mi SE 4.6 mph - N/A   Clear
5:15 AM 62.1 °F 59.0 °F 90% 29.92 in 10.0 mi ESE 3.5 mph - N/A   Clear
5:35 AM 62.2 °F 59.4 °F 90% 29.92 in 10.0 mi Calm Calm - N/A   Scattered Clouds
5:55 AM 62.6 °F 59.7 °F 90% 29.92 in 10.0 mi Calm Calm - N/A   Mostly Cloudy
6:15 AM 62.8 °F 59.9 °F 90% 29.92 in 10.0 mi East 3.5 mph - N/A   Mostly Cloudy
6:55 AM 63.5 °F 60.3 °F 89% 29.90 in 10.0 mi East 3.5 mph - N/A   Scattered Clouds
7:15 AM 64.2 °F 59.9 °F 86% 29.93 in 10.0 mi WNW 9.2 mph - N/A   Mostly Cloudy
7:35 AM 63.1 °F 59.0 °F 86% 29.93 in 10.0 mi NNW 20.7 mph 25.3 mph N/A   Overcast
7:55 AM 59.7 °F 54.3 °F 82% 29.96 in 7.0 mi North 18.4 mph - 0.02 in Rain , Thunderstorm Heavy Thunderstorms and Rain
8:15 AM 57.9 °F 54.5 °F 88% 29.97 in 7.0 mi NW 10.4 mph 27.6 mph 0.04 in Rain , Thunderstorm Thunderstorms and Rain
8:35 AM 56.8 °F 54.5 °F 92% 29.98 in 5.0 mi NNW 11.5 mph 17.3 mph 0.11 in Rain , Thunderstorm Heavy Thunderstorms and Rain
8:55 AM 55.6 °F 54.7 °F 97% 29.99 in 2.5 mi North 11.5 mph 18.4 mph 0.41 in Rain , Thunderstorm Heavy Thunderstorms and Rain
9:15 AM 55.4 °F 54.5 °F 97% 30.01 in 4.0 mi NNW 10.4 mph - 0.09 in Rain , Thunderstorm Heavy Thunderstorms and Rain
9:35 AM 54.7 °F 54.1 °F 98% 30.02 in 4.0 mi NNW 8.1 mph 24.2 mph 0.21 in Rain , Thunderstorm Rain
9:55 AM 54.5 °F 53.8 °F 97% 30.00 in 7.0 mi NNW 15.0 mph 19.6 mph 0.25 in Rain Rain
10:15 AM 54.3 °F 53.8 °F 98% 30.00 in 7.0 mi NW 9.2 mph 18.4 mph 0.02 in Rain Rain
10:35 AM 54.9 °F 54.5 °F 99% 30.01 in 10.0 mi NNE 5.8 mph - 0.03 in Rain Rain
10:55 AM 56.3 °F 56.1 °F 99% 29.98 in 10.0 mi NE 10.4 mph - 0.03 in Rain Light Rain
11:15 AM 56.3 °F 56.1 °F 99% 29.99 in 10.0 mi East 9.2 mph - 0.01 in   Overcast
11:35 AM 57.2 °F 56.7 °F 98% 30.01 in 10.0 mi ESE 8.1 mph - 0.01 in   Overcast
12:15 PM 57.0 °F 56.7 °F 99% 29.99 in 10.0 mi NE 6.9 mph - N/A   Overcast
12:35 PM 57.4 °F 57.0 °F 99% 29.99 in 10.0 mi North 4.6 mph - N/A   Overcast
1:15 PM 59.9 °F 57.0 °F 90% 29.98 in 10.0 mi NNE 6.9 mph - N/A   Overcast
1:35 PM 59.4 °F 56.3 °F 90% 29.97 in 10.0 mi NNE 8.1 mph - N/A   Overcast
1:55 PM 59.2 °F 55.8 °F 88% 29.97 in 7.0 mi Calm Calm - 0.02 in Rain Rain
2:15 PM 59.4 °F 56.5 °F 90% 29.95 in 10.0 mi Calm Calm - N/A   Overcast
2:35 PM 60.3 °F 57.2 °F 90% 29.94 in 10.0 mi Calm Calm - N/A   Overcast
2:55 PM 60.3 °F 56.8 °F 88% 29.97 in 10.0 mi NNW 8.1 mph - N/A   Overcast
3:15 PM 60.3 °F 56.8 °F 88% 29.97 in 10.0 mi NNW 10.4 mph - N/A   Overcast
3:35 PM 60.1 °F 56.5 °F 88% 29.97 in 10.0 mi NNW 8.1 mph - N/A   Overcast
3:55 PM 59.7 °F 56.3 °F 88% 29.96 in 10.0 mi North 6.9 mph - N/A Rain Light Rain
4:15 PM 59.9 °F 56.1 °F 87% 29.96 in 10.0 mi North 10.4 mph - N/A   Overcast
4:35 PM 59.9 °F 55.6 °F 86% 29.98 in 10.0 mi North 6.9 mph - N/A   Overcast
4:55 PM 59.4 °F 55.8 °F 88% 29.98 in 10.0 mi NNW 11.5 mph - N/A   Drizzle
5:15 PM 59.0 °F 55.9 °F 90% 29.99 in 10.0 mi NNW 10.4 mph - N/A   Overcast
5:35 PM 59.0 °F 55.8 °F 89% 30.00 in 10.0 mi NNW 8.1 mph - N/A   Overcast
5:55 PM 58.6 °F 55.6 °F 90% 30.00 in 10.0 mi NNW 11.5 mph - N/A   Overcast
6:15 PM 57.6 °F 54.7 °F 90% 30.01 in 10.0 mi NNW 10.4 mph - N/A   Overcast
6:35 PM 57.7 °F 54.7 °F 90% 30.02 in 10.0 mi NNW 10.4 mph - N/A   Overcast
6:55 PM 56.7 °F 55.0 °F 94% 30.03 in 3.0 mi NNW 10.4 mph - N/A Rain Rain
7:15 PM 56.7 °F 55.4 °F 96% 30.03 in 3.0 mi NNW 11.5 mph - N/A   Light Drizzle
7:35 PM 55.8 °F 54.3 °F 95% 30.03 in 7.0 mi NNW 13.8 mph - N/A   Overcast
7:55 PM 55.9 °F 54.3 °F 94% 30.03 in 10.0 mi North 8.1 mph - N/A   Overcast
8:15 PM 55.9 °F 53.8 °F 92% 30.04 in 10.0 mi NNW 10.4 mph 17.3 mph N/A   Overcast
8:35 PM 55.9 °F 54.0 °F 93% 30.04 in 10.0 mi NNW 6.9 mph - N/A   Overcast
8:55 PM 56.3 °F 53.6 °F 91% 30.04 in 10.0 mi North 8.1 mph - N/A   Overcast
9:15 PM 56.3 °F 53.6 °F 91% 30.05 in 10.0 mi NNW 6.9 mph - N/A   Overcast
9:35 PM 56.1 °F 53.4 °F 91% 30.05 in 10.0 mi NNW 5.8 mph - N/A   Overcast
9:55 PM 55.9 °F 53.1 °F 90% 30.05 in 10.0 mi NNW 6.9 mph - N/A   Overcast
10:15 PM 55.9 °F 52.9 °F 89% 30.06 in 10.0 mi North 6.9 mph - N/A   Mostly Cloudy
10:35 PM 55.4 °F 52.9 °F 91% 30.05 in 10.0 mi NNW 4.6 mph - N/A   Mostly Cloudy
10:55 PM 54.5 °F 52.3 °F 92% 30.05 in 10.0 mi NNW 5.8 mph - N/A   Scattered Clouds
11:15 PM 53.6 °F 51.8 °F 94% 30.05 in 10.0 mi NW 4.6 mph - N/A   Clear
11:35 PM 53.2 °F 51.8 °F 95% 30.05 in 10.0 mi NW 4.6 mph - N/A   Clear
11:55 PM 52.9 °F 51.3 °F 94% 30.06 in 10.0 mi NNW 4.6 mph - N/A   Clear